Regional Weather Roundup
Issued by NWS Charleston, SC

Current Version | Previous Version | Graphics & Text | Print | Product List | Glossary On
Versions: 1 2 3 4 5 6 7 8 9 10 11 12 13 14 15 16 17 18 19 20 21 22 23 24 25 26 27 28 29 30 31 32 33 34 35 36 37 38 39 40 41 42 43 44 45 46 47 48 49 50
000
ASUS42 KCHS 061612
RWRCHS

REGIONAL WEATHER ROUNDUP
NATIONAL WEATHER SERVICE CHARLESTON SC
1100 AM EST TUE DEC 06 2016

NOTE: "FAIR" INDICATES FEW OR NO CLOUDS BELOW 12,000 FEET WITH NO
SIGNIFICANT WEATHER AND/OR OBSTRUCTIONS TO VISIBILITY.

NOT ALL STATIONS ARE QUALITY CONTROLLED. USE DATA WITH CAUTION...
ESPECIALLY DEWPOINT OBSERVATIONS.

SCZ027-030-031-034>040-042>050-061700-
...SOUTHEAST SOUTH CAROLINA...

CITY           SKY/WX    TMP DP  RH WIND       PRES   REMARKS
N CHARLESTON   LGT RAIN  61  59  93 S6        29.78F VSB 1
WATERFRONT PRK   N/A     61  61 100 N7        29.79F
MOUNT PLEASANT NOT AVBL
JOHNS ISLAND   LGT RAIN  64  64 100 S7        29.78F
PINOPOLIS        N/A     57  57 100 VRB2      29.72
MONCKS CORNER  CLOUDY    59  57  94 E6        29.75F
SUMMERVILLE    CLOUDY   N/A N/A N/A SE5       29.77F
BEAUFORT MCAS  LGT RAIN  65  64  97 SW6       29.77F
BEAUFORT ARPT  LGT RAIN  64  64 100 S9        29.76F
HILTON HEAD IS RAIN      68  68 100 S12G21    29.79S
WALTERBORO     RAIN      61 N/A N/A CALM      29.79S
ALLENDALE      CLOUDY    61  61 100 SE6       29.74F

...SOUTHERN MIDLANDS AND PEE DEE...

CITY           SKY/WX    TMP DP  RH WIND       PRES   REMARKS
GEORGETOWN     LGT RAIN  59  59 100 CALM      29.82
KINGSTREE      LGT RAIN  52  50  93 E9        29.74F
ORANGEBURG     CLOUDY    56  55  97 CALM      29.76F
BARNWELL       NOT AVBL
AIKEN          CLOUDY    52  52 100 NE7       29.80F FOG
MANNING        NOT AVBL
COLUMBIA       CLOUDY    52  49  89 N5        29.79S
SUMTER         CLOUDY    49  48  95 NE9       29.75F FOG
FLORENCE       LGT RAIN  50  50 100 SE8       29.78F
MYRTLE BEACH   LGT RAIN  61  57  88 NW9       29.81F FOG
N MYRTLE BEACH LGT RAIN  61  61 100 NW7       29.78F FOG

$$

GAZ063-065-086>088-099>101-113>116-118-119-134>141-150-061700-
...SOUTHEAST GEORGIA...

CITY           SKY/WX    TMP DP  RH WIND       PRES   REMARKS
SAVANNAH ARPT  LGT RAIN  67  64  90 S8        29.77F
HUNTER AAF     LGT RAIN  68  68 100 S6        29.73F
FORT STEWART   LGT RAIN  64  64 100 CALM      29.74F
STATESBORO     NOT AVBL
SYLVANIA       CLOUDY   N/A N/A N/A SE3       29.75F FOG
CLAXTON        PTSUNNY  N/A N/A N/A CALM      29.76F

...CSRA...CENTRAL AND FAR SOUTHEAST GEORGIA...

CITY           SKY/WX    TMP DP  RH WIND       PRES   REMARKS
THOMSON        CLOUDY    56  56 100 CALM      29.79F
AUGUSTA-BUSH   CLOUDY    59  56  89 NE7       29.74F FOG
AUGUSTA-DANIEL CLOUDY    57  54  89 NE6       29.75F FOG
SWAINSBORO     CLOUDY    68  66  94 S6        29.74F
VIDALIA        CLOUDY    68  68 100 S8        29.75F
EASTMAN        CLOUDY    74  68  83 W9G17     29.77R
HAZLEHURST     FAIR      73  73 100 SW13      29.75F
ALMA           CLOUDY    70  69  97 S5        29.77S
WAYCROSS       CLOUDY    76  76  99 SW9       29.78S
JESUP          CLOUDY    73  73 100 SW3       29.77F
BAXLEY         CLOUDY    70  70 100 SW6       29.76S
BRUNSWICK      RAIN      73  73 100 S12       29.79F
SAINT SIMONS   HVY RAIN  73  71  93 SW12      29.79F FOG

$$

SCZ027-028-034-036>038-045-046-048>050-GAZ119-141-061700-
...LAKE AND SUPPLEMENTAL COASTAL OBSERVATIONS...

STATION/POSITION TIME  TEMP    WIND        PRES    WAVE   SWELL
                       AIR SEA DIR/SP/G            HT/PER HT/PER/DIR
                 (UTC) (F)     (DEG/KT/KT) (MB)    (FT/S) (FT/S/D)
WINYAH BAY       1445   59     360/  5     1010.0
LAKE MURRAY      1520   50      30/  3/  6 1008.8R
ACE BASIN NERRS  1445   64        CALM     1009.0
FORT PULASKI     1548   67 62  220/ 11/ 15 1008.9S
SAPELO ISLAND    1500   70     140/ 12     1009.0

$$

ANZ835-935-AMZ111-154-330-350-352-354-370-450-454-472-061700-
...C-MAN AND BUOY OBSERVATIONS...

STATION/POSITION TIME  TEMP    WIND        PRES    WAVE   SWELL
                       AIR SEA DIR/SP/G            HT/PER HT/PER/DIR
                 (UTC) (F)     (DEG/KT/KT) (MB)    (FT/S) (FT/S/D)
BUOY 41004       1550   74 74  220/ 21/ 27 1007.5F   7/ 7
BUOY 41008       1550   69 65  180/ 17/ 23 1007.7F   4/ 6
FOLLY BEACH CMAN 1500   63      CALM  /  1 1009.8R
CAPERS NEARSHORE 1508   61 61  360/  4/  8 1009.2R
FRIPP NEARSHORE  1508   64 62  200/  6/ 10 1009.6F


STATION/POSITION TIME  TEMP    WIND        PRES    WAVE   SWELL
                       AIR SEA DIR/SP/G            HT/PER HT/PER/DIR
                 (UTC) (F)     (DEG/KT/KT) (MB)    (FT/S) (FT/S/D)
5E ST. MARYS GA  1600      66                N/A     4/ 6
FRYING PAN BUOY  1550   75 74  210/ 16/ 25 1007.3F   6/ 6   2/12
BUOY 41025       1550   68 75  120/ 27/ 33 1010.1F   7/ 6   2/250/14
CAPE LOOKOUT NC  1500   64     110/ 20/ 22 1010.7F
BUOY 41002       1550   73 74  180/ 16/ 17 1014.2F   6/ 6   2/ 30/10
BUOY 41010       NOT AVBL
ST AUGUSTINE FL  1600   73 68  240/ 16/ 19 1011.4R


$$




USA.gov is the U.S. government's official web portal to all federal, state and local government web resources and services.